KD2BVA Weather Reports


Display with metric or nautical units.
time (UTC)temp
F
wind
direction
speed
MPH
gust
MPH
rain 1hr
in
rain 24hr
in
rain mn
in
humidity
%
barometer
mb
20260510233535 59 258 1.0 3.0 0.00 0.25 0.25 39 999.8
20260510233043 60 162 0.0 3.0 0.00 0.25 0.25 38 999.6
20260510232523 60 164 0.0 3.0 0.00 0.25 0.25 36 999.5
20260510232033 61 134 0.0 7.0 0.00 0.25 0.25 35 999.4
20260510231542 62 107 2.0 9.0 0.00 0.25 0.25 34 999.4
20260510231022 62 224 2.0 9.0 0.00 0.25 0.25 34 999.3
20260510230532 63 289 1.0 7.0 0.00 0.25 0.25 33 999.2
20260510230040 64 217 2.0 7.0 0.00 0.26 0.25 32 999.1
20260510225520 64 359 2.0 7.0 0.00 0.26 0.25 32 999.1
20260510225029 65 60 1.0 6.0 0.00 0.26 0.25 32 999.0
20260510224529 65 262 2.0 6.0 0.00 0.26 0.25 30 998.9
20260510224039 66 74 1.0 5.0 0.00 0.26 0.25 31 998.9
20260510223528 66 54 1.0 6.0 0.00 0.26 0.25 32 998.8
20260510223026 66 320 1.0 6.0 0.00 0.26 0.25 32 998.6
20260510222530 66 201 2.0 7.0 0.00 0.26 0.25 31 998.6
20260510222040 66 104 2.0 9.0 0.00 0.26 0.25 30 998.6
20260510221520 67 104 3.0 7.0 0.00 0.26 0.25 30 998.5
20260510221029 67 130 1.0 7.0 0.00 0.26 0.25 31 998.6
20260510220538 67 222 2.0 7.0 0.00 0.26 0.25 29 998.6
20260510220037 67 283 2.0 5.0 0.00 0.27 0.25 30 998.5
20260510215527 67 356 1.0 8.0 0.00 0.27 0.25 30 998.4
20260510215037 66 248 2.0 7.0 0.00 0.27 0.25 29 998.3
20260510214538 67 344 2.0 7.0 0.00 0.27 0.25 28 998.3
20260510214027 67 300 3.0 10.0 0.00 0.27 0.25 28 998.2
20260510213539 68 307 2.0 10.0 0.00 0.27 0.25 31 998.3
20260510213037 68 193 3.0 7.0 0.00 0.27 0.25 30 998.2
20260510212528 68 252 3.0 7.0 0.00 0.27 0.25 31 998.0
20260510212028 68 259 2.0 8.0 0.00 0.27 0.25 32 997.8
20260510211539 68 127 2.0 8.0 0.00 0.27 0.25 34 997.7
20260510211029 68 236 3.0 9.0 0.00 0.27 0.25 34 997.7
20260510210530 68 131 3.0 9.0 0.00 0.27 0.25 33 997.5
20260510210038 68 136 2.0 11.0 0.00 0.27 0.25 36 997.4
20260510205521 68 237 4.0 11.0 0.00 0.27 0.25 35 997.3
20260510205028 68 101 3.0 11.0 0.00 0.27 0.25 34 997.2
20260510204535 68 223 4.0 10.0 0.00 0.27 0.25 35 997.2
20260510204022 68 242 3.0 9.0 0.00 0.27 0.25 34 997.1
20260510203530 68 271 4.0 9.0 0.00 0.27 0.25 33 997.0
20260510203035 68 217 3.0 9.0 0.00 0.27 0.25 33 997.0
20260510202522 69 283 2.0 8.0 0.00 0.27 0.25 36 997.0
20260510202029 68 221 3.0 14.0 0.00 0.27 0.25 36 997.0
20260510201531 69 213 3.0 14.0 0.00 0.27 0.25 33 997.0
20260510201037 69 266 1.0 6.0 0.00 0.27 0.25 36 997.0
20260510200525 69 203 2.0 7.0 0.00 0.27 0.25 37 997.0
20260510200027 68 120 2.0 12.0 0.00 0.27 0.25 39 997.0
20260510195537 68 234 3.0 12.0 0.00 0.27 0.25 37 997.1
20260510195024 69 290 3.0 9.0 0.00 0.27 0.25 38 997.1
20260510194532 69 214 1.0 9.0 0.00 0.27 0.25 41 997.0
20260510194035 69 309 2.0 6.0 0.00 0.27 0.25 42 997.1
20260510193525 68 283 2.0 9.0 0.00 0.27 0.25 42 997.0
20260510193027 68 318 3.0 12.0 0.00 0.27 0.25 41 997.2
20260510192535 68 167 4.0 12.0 0.00 0.27 0.25 40 997.1
20260510192020 68 194 3.0 10.0 0.00 0.27 0.25 44 997.3
20260510191527 68 112 3.0 10.0 0.00 0.27 0.25 42 997.2
20260510191035 68 247 2.0 15.0 0.00 0.27 0.25 45 997.3
20260510190524 68 219 4.0 15.0 0.00 0.27 0.25 42 997.3
20260510190022 68 245 2.0 8.0 0.00 0.27 0.25 46 997.2
20260510185529 67 8 2.0 8.0 0.00 0.27 0.25 47 997.3
20260510185038 67 296 3.0 8.0 0.00 0.27 0.25 45 997.3
20260510184525 68 271 1.0 5.0 0.00 0.27 0.25 50 997.4
20260510184031 67 253 1.0 9.0 0.00 0.27 0.25 52 997.3
20260510183541 67 283 3.0 9.0 0.00 0.27 0.25 52 997.4
20260510183025 66 293 2.0 9.0 0.00 0.27 0.25 49 997.4
20260510182532 66 290 3.0 10.0 0.00 0.27 0.25 52 997.4
20260510182031 66 261 1.0 9.0 0.00 0.27 0.25 53 997.4
20260510181534 66 136 3.0 9.0 0.00 0.27 0.25 52 997.4
20260510181040 65 195 1.0 12.0 0.00 0.27 0.25 57 997.4
20260510180525 64 200 4.0 12.0 0.00 0.27 0.25 58 997.3
20260510180025 63 311 4.0 12.0 0.00 0.28 0.25 58 997.3
20260510175531 62 53 1.0 3.0 0.00 0.28 0.25 62 997.2
20260510175036 63 269 1.0 3.0 0.00 0.28 0.25 63 997.2
20260510174523 63 217 1.0 6.0 0.00 0.28 0.25 61 997.2
20260510174048 63 242 1.0 6.0 0.00 0.28 0.25 61 997.2
20260510173531 64 248 1.0 5.0 0.00 0.28 0.25 67 997.4
20260510173129 64 138 2.0 6.0 0.01 0.28 0.25 68 997.3
20260510172557 63 245 2.0 8.0 0.01 0.28 0.25 68 997.5
20260510172045 63 226 3.0 8.0 0.01 0.28 0.25 65 997.5
20260510171552 62 266 1.0 5.0 0.01 0.28 0.25 72 997.5
20260510171103 62 240 1.0 3.0 0.01 0.28 0.25 75 997.6
20260510170554 61 350 1.0 4.0 0.01 0.28 0.25 73 997.5
20260510170026 61 258 1.0 4.0 0.01 0.31 0.25 77 997.6
20260510165528 60 240 1.0 4.0 0.01 0.31 0.25 80 997.7
20260510165038 59 277 1.0 4.0 0.01 0.31 0.25 81 997.6
20260510164547 59 231 2.0 4.0 0.01 0.31 0.25 82 997.7
20260510164028 58 266 1.0 7.0 0.01 0.31 0.25 86 997.7
20260510163539 58 260 2.0 7.0 0.01 0.31 0.25 83 997.8
20260510163047 57 228 0.0 3.0 0.00 0.30 0.24 90 997.9
20260510162528 57 271 1.0 4.0 0.00 0.30 0.24 92 997.9
20260510162038 57 226 1.0 5.0 0.00 0.30 0.24 97 997.9
20260510161519 57 277 1.0 5.0 0.00 0.30 0.24 98 997.8
20260510161031 56 261 2.0 4.0 0.01 0.30 0.24 98 997.8
20260510160542 56 277 1.0 4.0 0.02 0.30 0.24 99 997.8
20260510160021 56 285 1.0 4.0 0.03 0.40 0.24 99 997.6
20260510155531 55 268 1.0 3.0 0.03 0.40 0.24 99 997.8
20260510155041 54 214 1.0 7.0 0.04 0.40 0.24 98 998.0
20260510154540 54 251 2.0 7.0 0.04 0.40 0.24 98 998.1
20260510154029 55 227 1.0 5.0 0.05 0.40 0.24 99 998.1
20260510153537 55 252 1.0 4.0 0.05 0.40 0.24 99 997.9
20260510153044 55 285 2.0 4.0 0.05 0.40 0.24 99 997.8
20260510152525 54 191 1.0 2.0 0.06 0.40 0.24 99 997.7
20260510152034 54 213 0.0 1.0 0.07 0.40 0.24 99 997.7
20260510151544 54 213 0.0 1.0 0.07 0.40 0.24 98 997.5
20260510151025 53 213 0.0 2.0 0.06 0.39 0.23 98 997.3
20260510150537 53 211 0.0 2.0 0.06 0.38 0.22 98 997.4
20260510150023 53 236 0.0 2.0 0.06 0.41 0.21 98 997.3
20260510145521 54 231 0.0 1.0 0.06 0.41 0.21 98 997.2
20260510145031 54 231 0.0 1.0 0.06 0.40 0.20 98 997.2
20260510144539 53 231 0.0 2.0 0.10 0.40 0.20 98 997.2
20260510143042 53 238 0.0 1.0 0.19 0.39 0.19 98 997.1
20260510142549 53 255 0.0 1.0 0.18 0.38 0.18 98 997.1
20260510142058 53 235 0.0 1.0 0.17 0.37 0.17 98 997.1
20260510141546 53 224 0.0 2.0 0.17 0.37 0.17 98 996.9
20260510141050 53 79 0.0 2.0 0.17 0.37 0.17 98 996.8
20260510140601 53 236 0.0 1.0 0.16 0.36 0.16 98 997.0
20260510140047 53 165 0.0 1.0 0.15 0.38 0.15 98 996.9
20260510135555 52 131 0.0 1.0 0.15 0.38 0.15 98 996.6
20260510135042 52 131 0.0 1.0 0.14 0.37 0.14 98 996.7
20260510134549 52 327 0.0 2.0 0.09 0.32 0.09 97 997.2
20260510134100 53 229 1.0 2.0 0.04 0.27 0.04 97 997.3
20260510133551 53 297 0.0 4.0 0.02 0.25 0.02 97 996.8
20260510133054 53 291 1.0 4.0 0.00 0.23 0.00 97 996.8
20260510132541 53 194 0.0 6.0 0.00 0.23 0.00 98 996.7
20260510132049 53 221 1.0 6.0 0.00 0.23 0.00 98 996.6
20260510131601 53 254 1.0 3.0 0.00 0.23 0.00 98 996.4
20260510131049 53 242 1.0 5.0 0.00 0.23 0.00 98 996.4
20260510130559 53 331 0.0 5.0 0.00 0.23 0.00 98 996.5
20260510130107 53 247 0.0 4.0 0.00 0.23 0.00 98 996.3
20260510125556 53 243 0.0 3.0 0.00 0.23 0.00 98 996.4
20260510125103 53 247 1.0 3.0 0.00 0.23 0.00 98 996.4
20260510124522 52 269 0.0 2.0 0.00 0.23 0.00 98 996.5
20260510124033 52 250 0.0 3.0 0.00 0.23 0.00 98 996.4
20260510123534 52 285 0.0 3.0 0.00 0.23 0.00 98 996.6
20260510123021 52 304 0.0 2.0 0.00 0.23 0.00 98 996.6
20260510122533 52 190 0.0 3.0 0.00 0.23 0.00 98 996.5
20260510122034 52 282 1.0 3.0 0.00 0.23 0.00 98 996.5
20260510121524 52 200 0.0 3.0 0.00 0.23 0.00 98 996.4
20260510121033 52 214 0.0 2.0 0.00 0.23 0.00 99 996.2
20260510120535 52 281 0.0 4.0 0.00 0.23 0.00 99 996.2
20260510120024 52 295 1.0 4.0 0.00 0.23 0.00 99 996.2
20260510115524 52 273 0.0 3.0 0.00 0.23 0.00 99 996.1
20260510115035 52 92 0.0 2.0 0.00 0.23 0.00 99 996.1
20260510114525 52 303 0.0 2.0 0.00 0.23 0.00 99 996.0
20260510114026 52 232 0.0 2.0 0.00 0.23 0.00 99 996.2
20260510113537 51 272 0.0 2.0 0.00 0.23 0.00 99 996.2
20260510113024 51 208 0.0 3.0 0.00 0.23 0.00 99 996.1
20260510112523 51 152 0.0 4.0 0.00 0.23 0.00 99 996.2
20260510112030 51 238 0.0 10.0 0.00 0.23 0.00 99 996.0
20260510111540 51 228 2.0 5.0 0.00 0.23 0.00 99 996.0
20260510111019 51 251 0.0 4.0 0.00 0.23 0.00 99 996.0
20260510110531 51 251 1.0 4.0 0.00 0.23 0.00 99 995.9
20260510110039 51 238 0.0 3.0 0.00 0.23 0.00 99 995.8
20260510105520 51 271 0.0 3.0 0.00 0.23 0.00 99 995.6
20260510105027 51 56 0.0 2.0 0.00 0.23 0.00 99 995.5
20260510104528 51 228 0.0 4.0 0.00 0.23 0.00 99 995.4
20260510104037 51 103 1.0 4.0 0.00 0.23 0.00 99 995.4
20260510103530 51 215 1.0 5.0 0.00 0.23 0.00 99 995.3
20260510103030 51 299 1.0 5.0 0.00 0.23 0.00 99 995.3
20260510102520 50 208 0.0 4.0 0.00 0.23 0.00 99 995.1
20260510102030 50 208 1.0 4.0 0.00 0.23 0.00 99 995.0
20260510101530 50 217 0.0 1.0 0.00 0.23 0.00 99 994.9
20260510101020 50 217 0.0 1.0 0.00 0.23 0.00 99 994.9
20260510100522 50 217 0.0 1.0 0.00 0.23 0.00 99 995.0
20260510100031 50 217 0.0 1.0 0.00 0.23 0.00 99 995.0
20260510095520 50 229 0.0 0.0 0.00 0.23 0.00 99 995.0
20260510095030 50 229 0.0 1.0 0.00 0.23 0.00 99 995.0
20260510094520 50 229 0.0 2.0 0.00 0.23 0.00 99 995.0
20260510094046 50 229 0.0 2.0 0.00 0.23 0.00 99 994.9
20260510093529 50 117 0.0 0.0 0.00 0.23 0.00 99 994.5
20260510093035 50 117 0.0 0.0 0.00 0.23 0.00 99 994.5
20260510092545 50 117 0.0 1.0 0.00 0.23 0.00 99 994.3
20260510092026 51 117 0.0 3.0 0.00 0.23 0.00 99 994.3
20260510091536 51 230 1.0 3.0 0.00 0.23 0.00 99 994.4
20260510091046 50 233 0.0 2.0 0.00 0.23 0.00 99 994.5
20260510090528 50 82 0.0 1.0 0.00 0.23 0.00 99 994.3
20260510090038 50 303 0.0 1.0 0.00 0.23 0.00 99 994.3
20260510085539 50 303 0.0 1.0 0.00 0.23 0.00 99 994.3
20260510085029 51 303 0.0 1.0 0.00 0.23 0.00 99 994.3
20260510084540 51 288 0.0 1.0 0.00 0.23 0.00 99 994.3
20260510084020 51 340 0.0 1.0 0.00 0.23 0.00 99 994.3
20260510083532 51 226 0.0 1.0 0.00 0.23 0.00 99 994.2
20260510083041 51 226 0.0 0.0 0.00 0.23 0.00 99 994.2
20260510082523 51 226 0.0 1.0 0.00 0.23 0.00 99 994.5
20260510082033 51 226 0.0 1.0 0.00 0.23 0.00 99 994.5
20260510081534 51 226 0.0 1.0 0.00 0.23 0.00 99 994.5
20260510081024 51 226 0.0 1.0 0.00 0.23 0.00 99 994.2
20260510080532 51 205 0.0 1.0 0.00 0.23 0.00 99 994.2
20260510080027 51 247 0.0 1.0 0.00 0.23 0.00 99 994.5
20260510075534 51 239 0.0 1.0 0.00 0.23 0.00 99 994.2
20260510075044 51 134 0.0 2.0 0.00 0.23 0.00 99 993.9
20260510074525 51 266 0.0 1.0 0.00 0.23 0.00 99 993.9
20260510074035 51 266 1.0 1.0 0.00 0.23 0.00 99 993.8
20260510073547 51 127 0.0 1.0 0.00 0.23 0.00 99 993.5
20260510073026 51 132 0.0 2.0 0.00 0.23 0.00 99 994.3
20260510072537 51 135 1.0 2.0 0.00 0.23 0.00 99 994.4
20260510072048 51 122 0.0 2.0 0.00 0.23 0.00 99 994.4
20260510071529 51 266 0.0 0.0 0.00 0.23 0.00 99 994.7
20260510071040 51 266 0.0 0.0 0.00 0.23 0.00 98 994.8
20260510070523 51 265 0.0 1.0 0.00 0.23 0.00 98 994.7
20260510070032 51 243 0.0 0.0 0.00 0.23 0.00 99 994.6
20260510065540 51 243 0.0 0.0 0.00 0.23 0.00 99 994.8
20260510065021 51 243 0.0 1.0 0.00 0.23 0.00 99 994.9
20260510064530 51 243 0.0 1.0 0.00 0.23 0.00 99 994.9
20260510064040 51 243 0.0 2.0 0.00 0.23 0.00 99 995.0
20260510063537 51 237 0.0 3.0 0.00 0.23 0.00 99 995.0
20260510063023 51 171 0.0 2.0 0.00 0.23 0.00 99 995.1
20260510062534 51 211 0.0 2.0 0.00 0.23 0.00 99 995.3
20260510062021 51 214 0.0 2.0 0.00 0.23 0.00 99 995.0
20260510061522 51 236 0.0 2.0 0.00 0.23 0.00 99 994.9
20260510061033 51 250 0.0 1.0 0.00 0.23 0.00 99 994.7
20260510060525 51 250 0.0 2.0 0.00 0.23 0.00 99 994.8
20260510060032 51 250 0.0 2.0 0.00 0.23 0.00 99 994.9
20260510055542 51 265 0.0 1.0 0.00 0.23 0.00 99 994.9
20260510055023 50 265 0.0 1.0 0.00 0.23 0.00 99 994.8
20260510054531 50 265 0.0 1.0 0.00 0.23 0.00 99 994.7
20260510054033 50 108 0.0 1.0 0.00 0.23 0.00 99 994.6
20260510053524 50 108 0.0 0.0 0.00 0.23 0.00 98 994.6
20260510053030 50 108 0.0 0.0 0.00 0.23 0.00 98 994.5
20260510052520 50 108 0.0 0.0 0.00 0.23 0.00 98 994.4
20260510052020 50 108 0.0 0.0 0.00 0.23 0.00 98 994.4
20260510051530 50 108 0.0 0.0 0.00 0.23 0.00 98 994.5
20260510051041 50 108 0.0 0.0 0.00 0.23 0.00 98 994.5
20260510050524 50 108 0.0 0.0 0.00 0.23 0.00 98 994.4
20260510050034 50 108 0.0 1.0 0.00 0.23 0.00 98 994.3
20260510045545 50 108 0.0 1.0 0.00 0.23 0.00 98 994.5
20260510045022 50 108 0.0 1.0 0.00 0.23 0.00 98 994.7
20260510044533 50 108 0.0 0.0 0.00 0.23 0.00 98 994.5
20260510044043 50 108 0.0 0.0 0.00 0.23 0.00 98 994.5
20260510043526 50 108 0.0 1.0 0.00 0.23 0.00 98 994.5
20260510043036 50 108 0.0 1.0 0.00 0.23 0.00 98 994.6
20260510042546 50 108 0.0 0.0 0.00 0.23 0.00 98 994.7
20260510042026 50 108 0.0 1.0 0.00 0.23 0.00 98 994.7
20260510041531 50 108 0.0 1.0 0.00 0.23 0.00 98 994.5
20260510041033 50 108 0.0 1.0 0.00 0.23 0.00 98 994.4
20260510040525 50 108 0.0 1.0 0.00 0.23 0.00 98 994.3
20260510040032 50 108 0.0 1.0 0.00 0.23 0.23 98 994.4
20260510035532 50 108 0.0 1.0 0.00 0.23 0.23 98 994.5
20260510035021 50 108 0.0 1.0 0.00 0.23 0.23 98 994.5
20260510034532 49 276 0.0 0.0 0.00 0.23 0.23 98 994.4
20260510034033 49 276 0.0 0.0 0.00 0.23 0.23 98 994.5
20260510033525 49 276 0.0 0.0 0.00 0.23 0.23 98 994.4
20260510033023 49 276 0.0 0.0 0.00 0.23 0.23 98 994.4
20260510032533 49 276 0.0 0.0 0.00 0.23 0.23 98 994.4
20260510032019 49 276 0.0 0.0 0.00 0.23 0.23 98 994.4
20260510031520 49 276 0.0 0.0 0.00 0.23 0.23 98 994.5
20260510031030 49 276 0.0 0.0 0.00 0.23 0.23 98 994.7
20260510030542 49 276 0.0 0.0 0.00 0.23 0.23 98 994.7
20260510030021 49 276 0.0 0.0 0.00 0.23 0.23 98 994.7
20260510025531 49 276 0.0 0.0 0.00 0.23 0.23 98 994.5
20260510025041 49 276 0.0 0.0 0.00 0.23 0.23 98 994.6
20260510024535 49 276 0.0 0.0 0.00 0.23 0.23 98 994.7
20260510024025 49 276 0.0 0.0 0.00 0.23 0.23 98 994.7
20260510023537 49 276 0.0 0.0 0.00 0.23 0.23 98 994.6
20260510023036 49 276 0.0 0.0 0.00 0.23 0.23 98 994.6
20260510022526 49 276 0.0 0.0 0.00 0.23 0.23 98 994.7
20260510022028 49 276 0.0 0.0 0.00 0.23 0.23 98 994.5
20260510021536 49 276 0.0 0.0 0.00 0.23 0.23 98 994.6
20260510021027 49 276 0.0 0.0 0.00 0.23 0.23 98 994.5
20260510020527 49 276 0.0 0.0 0.00 0.23 0.23 98 994.6
20260510020039 49 276 0.0 0.0 0.00 0.23 0.23 98 994.8
20260510015529 49 276 0.0 0.0 0.00 0.23 0.23 98 994.8
20260510015029 49 276 0.0 0.0 0.00 0.23 0.23 98 994.6
20260510014540 49 276 0.0 0.0 0.00 0.23 0.23 98 994.6
20260510014020 49 276 0.0 0.0 0.00 0.23 0.23 98 994.5
20260510013532 49 276 0.0 0.0 0.00 0.23 0.23 98 994.6
20260510013020 49 276 0.0 0.0 0.00 0.23 0.23 98 994.6
20260510012521 49 276 0.0 0.0 0.00 0.23 0.23 98 994.7
20260510012022 49 276 0.0 0.0 0.00 0.23 0.23 98 994.6
20260510011532 49 276 0.0 0.0 0.00 0.23 0.23 98 994.6
20260510011038 49 276 0.0 0.0 0.00 0.23 0.23 98 994.5
20260510010539 49 276 0.0 0.0 0.00 0.23 0.23 98 994.7
20260510010027 49 276 0.0 0.0 0.00 0.23 0.23 98 994.7
20260510005526 49 276 0.0 0.0 0.00 0.23 0.23 98 994.6
20260510005038 49 276 0.0 0.0 0.00 0.23 0.23 98 994.7
20260510004525 49 276 0.0 0.0 0.00 0.23 0.23 98 994.7
20260510004025 49 276 0.0 0.0 0.00 0.23 0.23 98 994.7
20260510003537 49 276 0.0 0.0 0.00 0.23 0.23 98 994.7
20260510003025 49 276 0.0 0.0 0.00 0.23 0.23 98 994.6
20260510002525 49 276 0.0 0.0 0.00 0.23 0.23 98 994.5
20260510002033 49 276 0.0 0.0 0.00 0.23 0.23 97 994.4
20260510001543 50 276 0.0 0.0 0.00 0.23 0.23 97 994.3
20260510001023 50 276 0.0 0.0 0.00 0.23 0.23 97 994.2
20260510000535 50 276 0.0 0.0 0.00 0.23 0.23 97 994.2
20260510000044 50 276 0.0 0.0 0.00 0.23 0.23 97 994.1
20260509235525 50 276 0.0 0.0 0.00 0.23 0.23 97 994.1
20260509235035 50 276 0.0 0.0 0.00 0.23 0.23 97 994.2
20260509234545 50 276 0.0 0.0 0.01 0.23 0.23 97 994.2
20260509234026 50 276 0.0 0.0 0.01 0.23 0.23 97 994.2